Regional Weather Roundup
Issued by NWS Green Bay, WI

Home | Current Version | Previous Version | Text Only | Print | Product List | Glossary On
Versions: 1 2 3 4 5 6 7 8 9 10 11 12 13 14 15 16 17 18 19 20 21 22 23 24 25 26 27 28 29 30 31 32 33 34 35 36 37 38 39 40 41 42 43 44 45 46 47 48 49 50
000
ASUS43 KGRB 021510
RWRGRB

NORTH-CENTRAL AND NORTHEAST WISCONSIN REGIONAL WEATHER ROUNDUP
NATIONAL WEATHER SERVICE GREEN BAY WI
1000 AM CDT TUE SEP 02 2014

WIZ005-009-010>012-018-019-021600-
NORTH CENTRAL WISCONSIN

CITY           SKY/WX    TMP DP  RH WIND       PRES   REMARKS
IRONWOOD       NOT AVBL
MANITOWISH WTR MOSUNNY   62  56  82 W7        29.86S
ARBOR VITAE    MOSUNNY   62  56  82 W3        29.87R
EAGLE RIVER    PTSUNNY   61  57  88 W6        29.86R
LAND O LAKES   PTSUNNY   63  56  77 W7        29.86S
RHINELANDER    PTSUNNY   62  56  80 W7        29.88R
PHILLIPS       SUNNY     62  55  78 W3        29.87S
ANTIGO         CLOUDY    58  56  93 CALM      29.88S
TOMAHAWK       PTSUNNY   61  57  87 W3        29.89R
MERRILL        CLOUDY    62  59  91 W5        29.88R
$$

WIZ013-073-021600-
NORTHEAST WISCONSIN

CITY           SKY/WX    TMP DP  RH WIND       PRES   REMARKS
IRON MOUNTAIN  CLOUDY    63  57  81 W3        29.83S
MARINETTE      CLOUDY    64  57  77 W5        29.86R
OCONTO         PTSUNNY   64  61  89 W6        29.86R
$$

WIZ017-030-035>037-045-021600-
CENTRAL WISCONSIN

CITY           SKY/WX    TMP DP  RH WIND       PRES   REMARKS
MEDFORD        PTSUNNY   62  59  91 W7        29.89R
WAUSAU         CLOUDY    64  58  80 SW5       29.87R
MOSINEE        PTSUNNY   63  61  94 SW7       29.89S
MARSHFIELD     CLOUDY    63  60  90 W9        29.89R
WISC RAPIDS    CLOUDY    65  59  81 SW7       29.90S
STEVENS POINT  CLOUDY    61  58  91 S3        29.89S
WAUPACA        PTSUNNY   70  63  79 W7        29.89R
SHAWANO        CLOUDY    65  60  85 CALM      29.89R
CLINTONVILLE   CLOUDY    63  59  88 NW3       29.89R
$$

WIZ038-039-048-051-021600-
FOX VALLEY

CITY           SKY/WX    TMP DP  RH WIND       PRES   REMARKS
NWS GREEN BAY  CLOUDY    67  63  87 SW5       29.87S
APPLETON       PTSUNNY   66  64  94 SW9       29.88F
OSHKOSH        PTSUNNY   69  62  78 SW6       29.87F
FOND DU LAC    PTSUNNY   68  62  81 MISG      29.88F
$$

WIZ022-050-052-021600-
EAST CENTRAL WISCONSIN

CITY           SKY/WX    TMP DP  RH WIND       PRES   REMARKS
STURGEON BAY   PTSUNNY   66  59  77 W7        29.87R
MANITOWOC      PTSUNNY   69  62  78 W5        29.88S
SHEBOYGAN      CLOUDY    70  61  73 SW3       29.88S
$$

LMZ563-521-522-541>543-021600-
LAKESHORE

STATION/POSITION TIME  TEMP    WIND        PRES    VSBY  WAVE
                       AIR SEA DIR/SP/G                  HT/PER
                 (UTC) (F)     (DEG/KT/KT) (MB)    (MI)  (FT/S)
SHEBOYGAN LKSHOR 1500   70 50  250/  7/  8 1011.7R
KEWAUNEE LKSHORE 1500   69     250/  4/  6 1010.4S
TWO RIVERS CG    1500                      1011.7      6   1
NORTHPORT PIER   1500   70     290/  2/  5 1010.5S
N MID LAKE BUOY  1500   64 65  270/ 10/ 10 1010.5R         1/ 5
S GREEN BAY BUOY 1500   66     VRB 10/ 14  1012.0R
STURGEON BAY CG  1500   68 54  320/  4     1009.0   3 1/2
CHAMBERS ISLAND  1500   67     180/  3/  7 1010.8S
MENOMINEE LKSHOR 1500   67     230/  6/  9 1011.4S
$$


USA.gov is the U.S. government's official web portal to all federal, state and local government web resources and services.